When you browse on this site, cookies collect data to enhance your experience and personalize the content and advertising you see.
Visit our Privacy Policy to learn more. By continuing to use the site, you agree to this use of cookies and data.
  • In Hungary
  • List of Countries
  • For 7 days
  • Water Temperature
  • Satellite Maps
  • Weather Map
  • News
  • Weather Widgets
  • user-avatar
    Login

    Hourly Weather Skawina

    Today, 18 November, Sunday

    Time Temperature Precipitation Wind Pressure Humidity
    00:00 -2°C° 0 mm 2 mps 754 mmHg 63%
    01:00 -3°C° 0 mm 2 mps 754 mmHg 64%
    02:00 -3°C° 0 mm 2 mps 753 mmHg 64%
    03:00 -1°C° 0 mm 1 mps 753 mmHg 65%
    04:00 -1°C° 0 mm 1 mps 752 mmHg 66%
    05:00 -1°C° 0 mm 1 mps 752 mmHg 67%
    06:00 -1°C° 0 mm 1 mps 751 mmHg 68%
    07:00 -1°C° 0 mm 1 mps 751 mmHg 69%
    08:00 0°C° 0 mm 1 mps 751 mmHg 64%
    09:00 +1°C° 0 mm 1 mps 750 mmHg 59%
    10:00 +3°C° 0 mm 1 mps 750 mmHg 54%
    11:00 +3°C° 0 mm 1 mps 749 mmHg 52%
    12:00 +3°C° 0 mm 2 mps 749 mmHg 50%
    13:00 +3°C° 0 mm 2 mps 748 mmHg 48%
    14:00 +3°C° 0 mm 2 mps 748 mmHg 50%
    15:00 +2°C° 0 mm 2 mps 747 mmHg 52%
    16:00 +2°C° 0 mm 1 mps 747 mmHg 54%
    17:00 +1°C° 0.1 mm 1 mps 746 mmHg 58%
    18:00 +1°C° 0.1 mm 1 mps 746 mmHg 62%
    19:00 +1°C° 0.1 mm 1 mps 746 mmHg 66%
    20:00 0°C° 0 mm 1 mps 746 mmHg 70%
    21:00 0°C° 0 mm 1 mps 745 mmHg 74%
    22:00 -1°C° 0 mm 1 mps 745 mmHg 78%
    23:00 -1°C° 0 mm 1 mps 745 mmHg 79%

    Tomorrow, 19 November, Monday

    Time Temperature Precipitation Wind Pressure Humidity
    00:00 -1°C° 0 mm 1 mps 745 mmHg 80%
    01:00 0°C° 0 mm 1 mps 745 mmHg 81%
    02:00 -1°C° 0 mm 1 mps 744 mmHg 83%
    03:00 -3°C° 0 mm 2 mps 744 mmHg 85%
    04:00 -3°C° 0 mm 2 mps 744 mmHg 88%
    05:00 -3°C° 0 mm 2 mps 744 mmHg 88%
    06:00 -3°C° 0 mm 2 mps 744 mmHg 89%
    07:00 -3°C° 0 mm 2 mps 743 mmHg 90%
    08:00 -2°C° 0 mm 3 mps 744 mmHg 83%
    09:00 -1°C° 0 mm 3 mps 744 mmHg 77%
    10:00 -1°C° 0 mm 4 mps 744 mmHg 70%
    11:00 -1°C° 0 mm 4 mps 744 mmHg 65%
    12:00 0°C° 0 mm 4 mps 744 mmHg 60%
    13:00 0°C° 0 mm 5 mps 744 mmHg 55%
    14:00 0°C° 0 mm 4 mps 744 mmHg 57%
    15:00 -1°C° 0 mm 4 mps 744 mmHg 59%
    16:00 -1°C° 0 mm 3 mps 744 mmHg 61%
    17:00 -1°C° 0 mm 3 mps 744 mmHg 63%
    18:00 -2°C° 0 mm 3 mps 744 mmHg 65%
    19:00 -2°C° 0 mm 3 mps 745 mmHg 67%
    20:00 -2°C° 0 mm 3 mps 745 mmHg 68%
    21:00 -2°C° 0 mm 3 mps 745 mmHg 68%
    22:00 -4°C° 0 mm 3 mps 745 mmHg 69%
    23:00 -4°C° 0 mm 3 mps 745 mmHg 71%

    Day after tomorrow, 20 November, Tuesday

    Time Temperature Precipitation Wind Pressure Humidity
    00:00 -4°C° 0 mm 3 mps 745 mmHg 73%
    01:00 -4°C° 0 mm 3 mps 745 mmHg 75%
    02:00 -4°C° 0 mm 4 mps 745 mmHg 76%
    03:00 -4°C° 0 mm 4 mps 745 mmHg 78%
    04:00 -4°C° 0 mm 4 mps 745 mmHg 79%
    05:00 -3°C° 0 mm 4 mps 744 mmHg 80%
    06:00 -3°C° 0 mm 4 mps 744 mmHg 81%
    07:00 -3°C° 0 mm 4 mps 744 mmHg 81%
    08:00 -2°C° 0 mm 4 mps 744 mmHg 77%
    09:00 -1°C° 0 mm 5 mps 744 mmHg 73%
    10:00 -1°C° 0 mm 5 mps 744 mmHg 68%
    11:00 0°C° 0 mm 5 mps 743 mmHg 66%
    12:00 +1°C° 0 mm 5 mps 742 mmHg 64%
    13:00 +1°C° 0 mm 6 mps 742 mmHg 62%
    14:00 +1°C° 0.1 mm 6 mps 741 mmHg 65%
    15:00 -1°C° 0.1 mm 6 mps 741 mmHg 68%
    16:00 -1°C° 0.1 mm 6 mps 741 mmHg 70%
    17:00 -1°C° 0.2 mm 6 mps 740 mmHg 73%
    18:00 0°C° 0.2 mm 5 mps 740 mmHg 76%
    19:00 0°C° 0.2 mm 5 mps 740 mmHg 79%
    20:00 0°C° 0.3 mm 5 mps 740 mmHg 81%
    21:00 0°C° 0.3 mm 5 mps 740 mmHg 82%
    22:00 0°C° 0.3 mm 5 mps 739 mmHg 84%
    23:00 -1°C° 0.5 mm 5 mps 739 mmHg 86%

    21 November, Wednesday

    Time Temperature Precipitation Wind Pressure Humidity
    00:00 -1°C° 0.5 mm 5 mps 739 mmHg 88%
    01:00 -1°C° 0.5 mm 4 mps 739 mmHg 90%
    02:00 -1°C° 0.2 mm 4 mps 739 mmHg 90%
    03:00 -1°C° 0.2 mm 4 mps 739 mmHg 90%
    04:00 -1°C° 0.2 mm 4 mps 739 mmHg 90%
    05:00 -1°C° 0.1 mm 4 mps 739 mmHg 90%
    06:00 -1°C° 0.1 mm 4 mps 740 mmHg 90%
    07:00 -1°C° 0.1 mm 4 mps 740 mmHg 91%
    08:00 0°C° 0.1 mm 4 mps 740 mmHg 90%
    09:00 0°C° 0.1 mm 4 mps 741 mmHg 90%
    10:00 0°C° 0.1 mm 4 mps 741 mmHg 89%
    11:00 0°C° 0.1 mm 4 mps 741 mmHg 89%
    12:00 0°C° 0.1 mm 4 mps 741 mmHg 89%
    13:00 +1°C° 0.1 mm 4 mps 741 mmHg 88%
    14:00 0°C° 0.1 mm 4 mps 742 mmHg 89%
    15:00 +1°C° 0.1 mm 3 mps 742 mmHg 91%
    16:00 +1°C° 0.1 mm 3 mps 742 mmHg 92%
    17:00 +1°C° 0.1 mm 3 mps 742 mmHg 92%
    18:00 +1°C° 0.1 mm 3 mps 743 mmHg 92%
    19:00 +1°C° 0.1 mm 3 mps 743 mmHg 92%
    20:00 +1°C° 0 mm 3 mps 743 mmHg 92%
    21:00 +1°C° 0 mm 3 mps 744 mmHg 92%
    22:00 +1°C° 0 mm 3 mps 744 mmHg 92%
    23:00 0°C° 0 mm 3 mps 744 mmHg 92%

    22 November, Thursday

    Time Temperature Precipitation Wind Pressure Humidity
    00:00 0°C° 0 mm 3 mps 744 mmHg 92%
    01:00 0°C° 0 mm 3 mps 744 mmHg 92%
    02:00 0°C° 0 mm 3 mps 744 mmHg 92%
    03:00 0°C° 0 mm 3 mps 744 mmHg 92%
    04:00 0°C° 0 mm 3 mps 744 mmHg 92%
    05:00 0°C° 0 mm 3 mps 744 mmHg 92%
    06:00 0°C° 0 mm 3 mps 745 mmHg 92%
    07:00 0°C° 0 mm 3 mps 745 mmHg 93%
    08:00 +1°C° 0 mm 3 mps 745 mmHg 91%
    09:00 +1°C° 0 mm 3 mps 745 mmHg 90%
    10:00 +2°C° 0 mm 3 mps 746 mmHg 89%
    11:00 +2°C° 0 mm 3 mps 746 mmHg 88%
    12:00 +3°C° 0 mm 3 mps 746 mmHg 87%
    13:00 +4°C° 0 mm 2 mps 746 mmHg 86%
    14:00 +4°C° 0 mm 2 mps 746 mmHg 88%
    15:00 +3°C° 0 mm 2 mps 746 mmHg 90%
    16:00 +3°C° 0 mm 2 mps 746 mmHg 92%
    17:00 +2°C° 0 mm 2 mps 746 mmHg 93%
    18:00 +2°C° 0 mm 2 mps 747 mmHg 93%
    19:00 +2°C° 0 mm 2 mps 747 mmHg 94%
    20:00 +2°C° 0 mm 2 mps 747 mmHg 94%
    21:00 +2°C° 0 mm 2 mps 747 mmHg 94%
    22:00 +2°C° 0 mm 2 mps 748 mmHg 94%
    23:00 +2°C° 0 mm 2 mps 748 mmHg 94%

    23 November, Friday

    Time Temperature Precipitation Wind Pressure Humidity
    00:00 +2°C° 0 mm 2 mps 748 mmHg 94%
    01:00 +3°C° 0 mm 2 mps 748 mmHg 94%
    02:00 +3°C° 0 mm 2 mps 748 mmHg 93%
    03:00 +3°C° 0 mm 2 mps 748 mmHg 93%
    04:00 +3°C° 0 mm 2 mps 748 mmHg 93%
    05:00 +3°C° 0 mm 2 mps 748 mmHg 93%
    06:00 +3°C° 0 mm 2 mps 748 mmHg 93%
    07:00 +3°C° 0 mm 2 mps 748 mmHg 93%
    08:00 +4°C° 0 mm 2 mps 748 mmHg 91%
    09:00 +6°C° 0 mm 1 mps 748 mmHg 89%
    10:00 +6°C° 0 mm 1 mps 749 mmHg 87%
    11:00 +7°C° 0 mm 1 mps 748 mmHg 84%
    12:00 +8°C° 0 mm 1 mps 748 mmHg 82%
    13:00 +9°C° 0 mm 1 mps 748 mmHg 79%
    14:00 +8°C° 0 mm 1 mps 748 mmHg 83%
    15:00 +7°C° 0 mm 1 mps 748 mmHg 87%
    16:00 +6°C° 0 mm 1 mps 747 mmHg 91%
    17:00 +6°C° 0 mm 1 mps 747 mmHg 91%
    18:00 +5°C° 0 mm 1 mps 747 mmHg 92%
    19:00 +5°C° 0 mm 1 mps 747 mmHg 92%
    20:00 +5°C° 0 mm 1 mps 747 mmHg 92%
    21:00 +5°C° 0 mm 1 mps 747 mmHg 92%
    22:00 +5°C° 0 mm 1 mps 747 mmHg 92%
    23:00 +5°C° 0.5 mm 1 mps 746 mmHg 92%
    Show more